Tracking 28799 objects as of 18-Apr-2024
HD Live streaming from Space Station
objects crossing your sky now

MOLNIYA 1-36

Track MOLNIYA 1-36 now!
MOLNIYA 1-36 is classified as:


NORAD ID: 9880
Int'l Code: 1977-021A
Perigee: 2,143.7 km
Apogee: 38,183.8 km
Inclination: 63.6 °
Period: 716.9 minutes
Semi major axis: 26534 km
RCS: 17.6752 m2 (large)
Launch date: March 24, 1977
Source: Commonwealth of Independent States (former USSR) (CIS)
Launch site: PLESETSK MISSILE AND SPACE COMPLEX (PKMTR)
Your satellite tracking list
Your tracking list is empty




NASA's NSSDC Master Catalog

Two Line Element Set (TLE):
1 09880U 77021A   24104.24520985 -.00000584  00000-0  00000-0 0  9996
2 09880  63.6092 190.5443 6791117 287.4783  12.9774  2.00854197242723
Source of the keplerian elements: AFSPC